{"data":{"norad_id":66436,"intl_designator":"2025-259Q","name":"STARLINK-35501","alt_names":[],"object_type":"PAYLOAD","status":"ACTIVE","operator":null,"country":"US","launch_date":"2025-11-11","launch_site_code":"AFETR","launch_vehicle":null,"mission":null,"orbit_class":"UNKNOWN","rcs_meters":null,"size_class":null,"mass_kg":null,"dimensions":null,"purposes":["comms"],"wikipedia_slug":null,"has_3d_model":false,"image_url":null,"decayed_at":null,"tle_current":{"epoch":"2026-09-20T08:05:33.269568Z","epoch_age_seconds":107507,"freshness":"FRESH","line1":"1 66436U 25259Q   26263.33719062  .00006875  00000+0  25909-3 0  9991","line2":"2 66436  43.0014 254.7729 0001000 264.7498  95.3239 15.27581767 49267","mean_motion":15.27581767,"eccentricity":0.0001,"inclination_deg":43.0014,"raan_deg":254.7729,"arg_perigee_deg":264.7498,"mean_anomaly_deg":95.3239,"bstar":0.00025909,"rev_number":4926,"period_min":94.266639672454,"perigee_km":482.35768693058,"apogee_km":483.72992309158,"semimajor_km":6861.1808050111,"source":"CELESTRAK","updated_at":"2026-09-21T09:00:35.909026Z"}}}